Location: *
(49.8044°N, 4.0558°E)
Time: 13:16:07
(UTC+00:00)

Cosmos 1697 Rocket - Pass Details

Date: 09 April 2020
Orbit: 831 x 845 km, 71.0° (Epoch: 26 May)

Event Time Altitude Azimuth Distance (km) Brightness Sun altitude
Rises 21:05:36 0° 331° (NNW) 3,413 7.2 -22.6°
Reaches altitude 10° 21:08:04 10° 332° (NNW) 2,475 6.2 -22.9°
Maximum altitude 21:13:46 86° 61° (ENE) 854 2.6 -23.5°
Enters shadow 21:14:59 57° 146° (SE) 987 2.6 -23.6°
